This demonstration page uses our WeatherBlox Daily Observations layout. Learn more.

Left ArrowRight Arrow

Hourly Observations for March 10, 2015

Temp ( °F °C ) Dew Point ( °F °C ) Humidity (%) Winds ( mph kmh ) Pressure ( in mb ) Visibility ( mi km ) Precip ( " mm )
12:16 am 00:16 Cloudy 39 4 N/A N/A SSE 3 6 30.21 1023 5 8 N/A
12:35 am 00:35 Cloudy 39 4 N/A N/A S 3 6 30.21 1023 7 11 N/A
12:55 am 00:55 Cloudy 39 4 N/A N/A N N/A 30.21 1023 5 8 N/A
1:16 am 01:16 Cloudy 39 4 N/A N/A N N/A 30.21 1023 5 8 N/A
1:35 am 01:35 Mostly Cloudy 37 3 N/A N/A SSE 5 7 30.21 1023 5 8 N/A
1:56 am 01:56 Mostly Cloudy 39 4 N/A N/A N N/A 30.15 1021 5 8 N/A
2:16 am 02:16 Mostly Cloudy 39 4 N/A N/A N N/A 30.15 1021 5 8 N/A
2:35 am 02:35 Mostly Cloudy 39 4 N/A N/A SSE 6 9 30.15 1021 5 8 N/A
2:56 am 02:56 Cloudy 39 4 N/A N/A SE 6 9 30.15 1021 5 8 N/A
3:16 am 03:16 Cloudy 39 4 N/A N/A SE 5 7 30.15 1021 5 8 N/A
3:35 am 03:35 Cloudy 39 4 N/A N/A SE 6 9 30.12 1020 5 8 N/A
3:56 am 03:56 Cloudy 41 5 N/A N/A SE 5 7 30.12 1020 7 11 N/A
4:16 am 04:16 Cloudy 39 4 N/A N/A SSE 6 9 30.12 1020 5 8 N/A
4:36 am 04:36 Cloudy 39 4 N/A N/A SSE 3 6 30.12 1020 5 8 N/A
4:56 am 04:56 Cloudy 39 4 N/A N/A SE 3 6 30.12 1020 5 8 N/A
5:15 am 05:15 Cloudy 39 4 N/A N/A ESE 3 6 30.09 1019 5 8 N/A
5:36 am 05:36 Cloudy 39 4 N/A N/A ESE 3 6 30.09 1019 5 8 N/A
5:56 am 05:56 Cloudy 39 4 N/A N/A N N/A 30.09 1019 4 6 N/A
6:15 am 06:15 Cloudy 39 4 N/A N/A SE 5 7 30.09 1019 5 8 N/A
6:36 am 06:36 Cloudy 39 4 N/A N/A SE 3 6 30.09 1019 4 6 N/A
6:56 am 06:56 Cloudy 39 4 N/A N/A S 3 6 30.09 1019 3 5 N/A
7:15 am 07:15 Cloudy 39 4 N/A N/A SE 5 7 30.09 1019 3 4 N/A
7:36 am 07:36 Cloudy 41 5 N/A N/A N N/A 30.09 1019 3 4 N/A
7:56 am 07:56 Cloudy 41 5 N/A N/A SE 5 7 30.09 1019 3 4 N/A
8:15 am 08:15 Cloudy 41 5 N/A N/A SE 3 6 30.09 1019 3 4 N/A
8:36 am 08:36 Cloudy 39 4 N/A N/A SE 5 7 30.09 1019 2 3 N/A
8:56 am 08:56 Cloudy 41 5 N/A N/A SE 5 7 30.09 1019 2 2 N/A
9:15 am 09:15 Cloudy 41 5 N/A N/A SE 5 7 30.09 1019 1 2 N/A
9:36 am 09:36 Cloudy 41 5 N/A N/A SE 3 6 30.09 1019 2 2 N/A
9:56 am 09:56 Cloudy 41 5 N/A N/A SE 5 7 30.09 1019 1 2 N/A
10:15 am 10:15 Cloudy 41 5 N/A N/A SE 3 6 30.09 1019 2 2 N/A
10:36 am 10:36 Cloudy 43 6 N/A N/A SSE 5 7 30.09 1019 2 2 N/A
10:55 am 10:55 Cloudy 43 6 N/A N/A SE 5 7 30.09 1019 2 3 N/A
11:16 am 11:16 Cloudy 43 6 N/A N/A SE 3 6 30.06 1018 2 3 N/A
11:36 am 11:36 Cloudy 43 6 N/A N/A N N/A 30.06 1018 1 2 N/A
11:55 am 11:55 Cloudy 43 6 N/A N/A N N/A 30.06 1018 1 2 N/A
12:16 pm 12:16 Cloudy 43 6 N/A N/A N N/A 30.06 1018 1 2 N/A
12:35 pm 12:35 Cloudy 43 6 N/A N/A N N/A 30.06 1018 1 1 N/A
12:56 pm 12:56 Cloudy 45 7 N/A N/A E 3 6 30.06 1018 1 1 N/A
1:16 pm 13:16 Cloudy 45 7 N/A N/A NE 3 6 30.03 1017 1 1 N/A
1:35 pm 13:35 Cloudy 45 7 N/A N/A ENE 5 7 30.03 1017 1 2 N/A
1:56 pm 13:56 Cloudy 45 7 N/A N/A E 5 7 30.00 1016 1 2 N/A
2:16 pm 14:16 Cloudy 45 7 N/A N/A E 3 6 30.00 1016 1 2 N/A
2:35 pm 14:35 Cloudy 45 7 N/A N/A ENE 5 7 30.00 1016 1 2 N/A
2:56 pm 14:56 Cloudy 46 8 N/A N/A E 5 7 30.00 1016 2 3 N/A
3:15 pm 15:15 Cloudy 46 8 N/A N/A ENE 3 6 29.97 1015 2 2 N/A
3:35 pm 15:35 Cloudy 46 8 N/A N/A NE 3 6 29.97 1015 2 3 N/A
3:56 pm 15:56 Cloudy 46 8 N/A N/A NNE 3 6 29.97 1015 2 3 N/A
4:15 pm 16:15 Cloudy 46 8 N/A N/A NNE 5 7 29.97 1015 3 4 N/A
4:36 pm 16:36 Cloudy 46 8 N/A N/A NE 6 9 29.97 1015 2 2 N/A
4:56 pm 16:56 Cloudy 46 8 N/A N/A N 3 6 29.97 1015 1 2 N/A
5:15 pm 17:15 Cloudy 46 8 N/A N/A N N/A 29.97 1015 1 2 N/A
5:36 pm 17:36 Cloudy 46 8 N/A N/A N 3 6 29.97 1015 1 2 N/A
5:56 pm 17:56 Cloudy 46 8 N/A N/A N N/A 30.00 1016 1 1 N/A
6:15 pm 18:15 Cloudy 46 8 N/A N/A N 5 7 30.00 1016 1 1 N/A
6:36 pm 18:36 Cloudy 46 8 N/A N/A N 6 9 30.00 1016 1 1 N/A
6:56 pm 18:56 Cloudy 46 8 N/A N/A N 6 9 30.00 1016 1 2 N/A
7:15 pm 19:15 Cloudy 46 8 N/A N/A N 8 13 30.00 1016 1 2 N/A
7:36 pm 19:36 Cloudy 45 7 N/A N/A N 6 9 30.03 1017 2 3 N/A
7:55 pm 19:55 Cloudy 45 7 N/A N/A N 6 9 30.03 1017 3 4 N/A
8:16 pm 20:16 Cloudy 45 7 N/A N/A N 6 9 30.03 1017 1 1 N/A
8:36 pm 20:36 Cloudy 43 6 N/A N/A N 5 7 30.06 1018 0 0 N/A
8:55 pm 20:55 Cloudy 43 6 N/A N/A NNW 5 7 30.06 1018 0 0 N/A
9:16 pm 21:16 Cloudy 43 6 N/A N/A NNW 8 13 30.06 1018 0 0 N/A
9:36 pm 21:36 Cloudy 43 6 N/A N/A N 3 6 30.06 1018 0 0 N/A
9:55 pm 21:55 Cloudy 43 6 N/A N/A NNW 3 6 30.06 1018 5 8 N/A
10:16 pm 22:16 Cloudy 43 6 N/A N/A N N/A 30.09 1019 5 8 N/A
10:35 pm 22:35 Cloudy 41 5 N/A N/A N N/A 30.09 1019 5 8 N/A
10:55 pm 22:55 Cloudy 41 5 N/A N/A NW 3 6 30.09 1019 0 0 N/A
11:16 pm 23:16 Cloudy 39 4 N/A N/A N N/A 30.09 1019 0 0 N/A
11:35 pm 23:35 Cloudy 39 4 N/A N/A N N/A 30.09 1019 0 0 N/A
11:56 pm 23:56 Cloudy 39 4 N/A N/A N N/A 30.12 1020 0 0 N/A

Powered by AerisWeather